Temperature
15 15 15 15 15 14 14 13 13 12 12 11 11 10 10 10 10 9 9 9 9 9 8 8 8 8 7 7 7 7 7 6 6 6 6 6 7 7 7 7 7 7 7
14 14 14 14 14 14 14 13 13 12 12 11 11 10 10 10 10 9 9 9 9 9 8 8 8 8 7 7 7 6 6 6 6 5 4 4 5 5 5 6 6 6 6
14 14 14 14 14 14 13 13 13 12 11 11 11 10 10 10 9 9 9 9 9 9 8 8 8 7 7 7 6 6 6 5 5 5 4 3 3 3 4 4 5 5 5
14 14 14 13 13 13 13 13 12 12 12 11 11 11 10 10 10 10 9 9 9 8 8 8 7 7 7 6 6 6 5 5 5 5 4 4 3 2 2 3 3 3 4
14 14 14 13 13 13 13 12 12 12 12 11 11 11 11 10 10 10 9 9 8 8 8 7 7 7 6 6 6 5 5 5 5 4 4 4 3 3 2 1 2 3 3
14 14 13 13 12 12 12 12 12 12 12 11 11 11 10 10 10 9 9 9 8 8 7 7 7 6 6 6 5 5 5 5 4 4 4 3 2 2 2 1 1 1 2
13 13 13 13 12 12 12 12 12 12 11 11 11 11 10 10 9 9 9 8 8 7 7 7 6 6 6 5 5 5 5 4 4 4 3 3 2 2 1 1 0 0 0
13 14 13 13 13 12 12 12 12 12 11 11 11 10 10 9 9 8 8 8 7 7 6 6 6 5 5 5 5 4 4 4 3 3 3 2 2 2 1 0 -0 -1 -1
13 14 13 13 13 12 12 12 11 11 11 10 10 10 9 9 8 8 7 7 7 6 6 6 5 5 5 5 4 4 4 3 3 3 2 2 2 1 1 -0 -1 -2 -2
13 13 13 13 13 12 12 11 11 11 10 10 10 9 9 8 8 7 7 7 6 6 5 5 5 5 5 4 4 4 3 3 3 2 2 1 1 0 0 -0 -1 -2 -3
13 13 13 13 12 12 11 11 10 10 10 9 9 8 8 8 7 7 6 6 6 5 5 5 5 4 4 4 3 3 3 2 2 2 1 1 0 -0 -1 -1 -2 -2 -3
14 13 13 12 12 11 11 10 10 9 9 9 8 8 7 7 7 6 6 6 5 5 4 4 4 4 3 3 3 2 2 2 1 1 0 0 -1 -1 -2 -2 -2 -3 -3
13 13 12 12 11 11 10 10 9 9 9 8 8 7 7 6 6 6 5 5 5 4 4 4 3 3 3 2 2 1 1 1 1 0 -0 -1 -1 -2 -2 -3 -3 -3 -4
13 13 12 12 11 10 10 9 9 9 8 8 7 7 6 6 6 5 5 4 4 4 3 3 3 2 2 2 1 1 1 0 -0 -0 -1 -2 -2 -3 -3 -4 -4 -4 -4
13 13 12 11 11 10 9 9 9 8 8 7 7 6 6 5 5 5 4 4 3 3 3 3 2 2 2 1 1 0 -1 -1 -1 -1 -2 -2 -3 -4 -4 -4 -4 -5 -5
13 13 12 11 11 10 9 9 8 8 7 7 6 6 5 5 5 4 4 3 3 3 2 2 2 1 1 0 -0 -1 -2 -2 -2 -2 -2 -3 -3 -4 -4 -5 -5 -5 -5
13 12 12 11 11 10 9 8 8 7 7 6 6 5 5 4 4 4 3 3 2 2 2 1 1 1 1 -0 -1 -1 -2 -2 -3 -3 -3 -4 -4 -4 -5 -5 -5 -5 -5
13 12 11 11 10 9 8 8 7 7 6 6 5 5 4 4 3 3 3 2 2 1 1 1 1 0 0 -1 -1 -2 -3 -3 -3 -3 -4 -4 -4 -5 -5 -5 -5 -5 -5
13 12 11 10 9 9 8 7 7 6 6 5 5 4 4 3 3 2 2 2 1 1 1 0 -0 -0 -1 -1 -2 -3 -3 -3 -3 -4 -4 -5 -5 -5 -6 -6 -5 -5 -5
11 11 10 9 9 8 7 6 6 5 5 5 4 4 3 3 2 2 1 1 0 0 -0 -0 -1 -1 -1 -2 -2 -3 -4 -4 -4 -5 -5 -5 -6 -6 -6 -6 -6 -6 -5
10 10 9 8 8 7 6 6 5 5 4 4 4 3 3 2 2 1 1 0 -0 -0 -1 -1 -1 -1 -2 -2 -3 -4 -5 -5 -5 -6 -6 -6 -6 -6 -6 -6 -6 -6 -6
9 9 8 7 7 6 6 5 5 4 4 3 3 2 2 2 1 1 0 -0 -1 -1 -1 -1 -1 -1 -2 -3 -3 -4 -5 -6 -6 -6 -6 -6 -6 -6 -6 -6 -6 -6 -6
8 7 7 6 6 5 5 5 4 3 3 3 2 2 2 1 1 0 -0 -1 -1 -2 -2 -2 -2 -2 -3 -3 -4 -5 -5 -6 -6 -6 -6 -6 -6 -6 -6 -6 -6 -6 -6
7 6 6 6 5 5 4 4 3 3 2 2 2 1 1 1 0 -0 -1 -1 -2 -2 -3 -3 -4 -4 -4 -4 -5 -5 -6 -6 -6 -6 -6 -6 -6 -6 -6 -7 -7 -7 -7
6 6 5 5 4 4 4 3 2 2 2 1 1 1 0 -0 -1 -1 -1 -2 -2 -3 -4 -4 -4 -5 -5 -5 -6 -6 -6 -6 -6 -6 -6 -7 -7 -7 -7 -7 -7 -7 -7
5 5 4 4 4 3 3 2 2 1 1 1 1 0 -0 -1 -1 -2 -2 -2 -3 -3 -4 -4 -5 -5 -6 -6 -6 -6 -7 -7 -7 -7 -7 -7 -7 -7 -8 -8 -8 -8 -8
Wind_Speed
3 4 5 6 7 7 8 8 9 8 8 5 5 4 3 2 2 3 4 4 5 5 5 4 4 4 3 4 4 3 4 3 2 3 5 6 7 7 7 7 7 10 14
6 5 5 5 6 6 7 8 8 8 7 5 4 3 4 2 2 1 1 1 2 3 4 4 3 3 3 3 3 3 2 3 2 2 4 5 5 4 4 5 6 7 9
10 8 6 6 6 6 7 7 8 8 7 7 5 5 4 3 2 1 1 2 3 3 3 3 3 3 3 3 4 3 4 4 3 3 3 4 4 4 4 5 5 5 5
9 8 8 7 6 5 6 8 8 8 7 7 7 6 4 3 2 1 1 2 2 2 3 3 3 2 1 3 3 3 3 4 4 3 4 6 5 5 5 3 4 6 7
12 11 9 8 6 6 7 7 8 7 6 7 7 7 4 3 1 1 0 1 2 2 2 2 1 1 2 3 3 3 4 3 4 4 4 5 5 7 7 9 6 5 6
11 10 8 7 6 6 6 7 8 6 6 7 7 7 7 5 3 1 0 1 2 2 2 2 1 2 2 3 4 4 5 5 5 5 5 5 5 5 6 9 10 9 7
13 12 11 10 8 8 7 7 8 6 6 7 6 6 6 5 4 3 2 1 1 1 2 2 2 2 4 5 5 4 5 5 6 6 6 6 7 6 7 9 11 10 7
13 14 13 11 10 10 9 8 8 7 6 6 6 5 5 4 3 3 2 2 2 2 2 3 3 5 6 6 5 4 6 5 6 8 7 6 7 6 6 7 10 13 9
14 14 13 12 11 11 9 9 9 7 7 6 6 5 4 4 3 2 1 1 2 2 3 3 4 5 6 6 5 5 6 6 7 7 8 7 7 6 6 6 7 9 14
13 13 13 13 11 10 9 9 9 8 7 6 5 4 4 3 2 1 1 1 2 2 3 4 4 5 5 5 5 6 6 7 7 6 8 8 7 6 6 6 6 7 11
16 15 13 12 11 9 9 9 8 7 7 6 5 4 3 2 2 1 1 2 2 3 4 5 6 6 7 7 6 7 8 8 9 8 9 9 9 7 7 6 6 7 8
14 13 12 11 10 10 10 9 9 8 7 6 5 4 3 2 1 1 3 3 3 4 5 5 6 7 8 8 8 9 9 9 10 10 9 10 9 9 8 7 8 9 9
11 11 11 12 12 11 10 9 9 8 7 6 5 4 2 2 2 3 4 4 4 5 6 6 7 8 8 9 9 9 9 9 10 10 10 11 10 11 9 9 9 9 11
13 13 12 12 12 11 11 10 8 8 7 6 5 4 3 3 4 4 5 5 5 6 7 7 8 9 9 9 9 9 9 10 10 10 10 10 10 11 11 10 11 11 11
12 14 14 12 11 10 10 9 8 7 6 6 4 4 4 4 4 5 6 6 6 7 8 8 9 9 8 8 9 9 9 10 10 10 10 11 14 17 15 13 10 10 10
13 13 12 12 13 12 11 9 8 7 6 5 5 4 4 4 5 6 6 7 7 8 8 8 9 9 9 16 20 16 9 9 10 10 10 11 14 17 22 24 23 20 14
12 13 13 13 13 12 11 10 8 6 6 5 4 4 4 5 6 7 7 8 8 8 9 9 9 10 13 20 21 21 13 9 9 10 10 11 12 18 11 18 23 21 24
10 11 10 10 9 8 8 8 7 6 5 4 4 5 5 6 7 7 8 8 7 8 9 10 10 10 13 21 22 22 13 9 10 10 11 11 12 13 15 12 12 13 14
8 9 9 9 9 9 8 8 6 5 4 5 6 6 6 7 7 8 9 8 8 9 9 9 10 11 14 21 23 22 10 9 10 10 11 12 11 20 24 17 14 14 13
7 8 8 8 9 8 8 7 5 5 6 7 7 7 6 7 8 9 9 8 8 9 9 10 10 11 12 19 22 22 8 9 10 9 10 17 18 23 25 16 13 15 13
8 9 10 9 8 7 7 6 5 6 7 6 6 6 7 8 9 9 8 8 9 9 9 11 11 10 13 17 21 22 11 9 10 10 8 9 21 25 26 23 14 18 18
8 8 8 7 6 6 6 5 6 6 5 5 6 7 8 8 7 8 9 8 9 9 10 10 11 9 10 15 17 22 21 19 12 11 9 11 23 26 26 21 20 25 21
8 6 7 6 4 5 6 6 6 5 5 6 7 8 8 8 8 8 9 8 8 8 9 9 11 10 8 10 21 23 24 23 15 12 19 23 26 24 17 20 23 19 9
6 6 6 6 4 4 5 6 5 5 5 7 8 8 8 8 8 7 7 7 8 9 9 10 11 11 9 8 8 9 12 16 15 13 17 23 23 18 18 17 13 8 7
5 5 6 6 5 4 5 5 5 5 6 8 8 8 8 8 8 8 8 9 8 10 11 10 10 11 12 14 21 17 11 9 12 14 10 8 8 7 7 8 8 7 7
5 5 5 5 5 5 6 6 6 6 6 7 8 7 7 7 7 8 10 14 15 21 22 21 20 16 20 26 27 26 26 26 25 17 9 8 8 9 9 9 8 7 7
Wind_Direction
146 99 90 96 102 110 119 128 133 142 141 139 140 136 137 134 133 163 184 196 208 216 215 223 231 224 225 236 240 248 261 265 261 293 296 280 267 265 263 265 271 275 279
146 120 103 99 110 122 122 123 129 136 139 138 134 129 127 124 123 120 139 219 231 236 226 223 230 231 236 257 254 241 261 267 234 247 303 310 315 312 275 268 263 268 282
161 151 134 124 122 129 136 133 129 128 127 125 114 96 80 68 61 39 330 304 280 263 251 243 238 239 227 250 258 246 242 264 264 205 226 278 284 303 273 262 262 273 279
159 156 150 144 144 146 135 128 126 122 123 124 128 132 137 154 190 202 256 307 313 294 278 263 252 247 240 256 262 249 237 240 265 260 229 234 252 279 298 280 277 274 273
165 162 160 154 146 141 134 129 122 120 123 123 131 131 133 152 151 114 9 336 342 341 327 301 279 271 263 264 271 273 256 235 243 249 252 255 256 239 263 286 280 278 264
165 156 151 143 137 136 132 132 127 125 126 125 129 138 146 149 137 125 105 342 338 341 342 332 312 290 279 272 271 267 264 254 252 252 246 246 252 255 255 275 286 283 272
165 160 160 160 157 154 151 145 140 138 138 133 134 141 147 149 154 161 170 192 316 316 313 319 298 286 281 280 277 272 271 263 259 257 256 251 251 254 261 276 287 286 279
173 171 171 169 167 166 162 157 152 149 148 142 139 138 139 140 151 162 171 198 230 255 274 296 295 293 294 294 287 278 274 269 264 266 264 262 261 256 256 265 286 295 289
180 177 174 173 172 171 170 166 159 154 154 149 141 140 141 142 154 164 169 215 255 269 293 301 299 300 299 294 289 279 279 277 269 267 268 266 265 261 259 258 260 278 295
183 180 179 178 176 173 168 163 159 158 156 152 151 151 156 157 158 156 229 275 286 292 303 304 300 297 295 292 289 284 279 278 274 269 269 269 267 264 260 257 258 256 276
188 185 183 179 171 165 162 162 161 154 155 156 153 147 154 151 145 181 252 270 279 290 295 296 297 297 295 293 289 284 283 279 280 279 276 273 271 269 266 261 260 261 266
188 183 177 171 170 169 167 165 163 160 163 159 152 153 155 152 177 252 270 275 283 287 287 291 292 291 290 288 286 286 285 280 281 281 279 276 278 270 266 264 264 267 264
184 178 176 177 177 173 170 167 165 163 160 154 151 156 172 202 240 260 273 279 282 288 289 288 287 287 287 286 282 277 278 276 274 275 274 276 275 275 272 267 269 270 274
186 183 183 182 177 172 169 165 164 162 158 155 159 179 210 231 247 261 271 276 279 283 285 284 281 281 283 284 281 278 275 274 272 269 267 268 267 270 273 275 269 270 273
189 187 184 179 172 167 166 164 163 162 158 159 175 206 226 240 254 266 272 275 277 278 278 281 283 282 283 281 281 278 273 273 274 272 267 265 274 279 283 283 276 272 276
194 187 179 174 173 172 169 165 165 166 161 172 199 218 234 250 261 266 270 275 277 277 277 277 278 281 286 298 303 303 287 277 275 278 274 274 281 286 290 291 291 289 285
190 182 180 178 176 173 167 169 170 164 168 188 211 229 240 255 263 268 272 273 275 275 278 277 275 276 282 297 303 304 302 284 278 276 278 285 286 293 282 285 288 286 284
183 179 172 168 163 158 157 155 154 161 178 203 228 241 246 257 266 270 270 271 270 272 274 276 275 276 283 297 303 305 301 283 275 272 271 275 277 279 285 276 273 270 271
174 167 161 154 148 152 153 148 155 168 191 222 239 244 245 255 264 268 269 271 273 275 273 273 274 276 284 296 302 303 290 281 277 272 271 277 275 284 292 291 282 280 276
143 142 137 135 145 153 148 150 170 189 219 233 241 247 248 252 259 264 269 271 270 273 277 278 275 275 278 291 300 302 288 283 282 277 271 281 287 291 294 289 283 284 283
134 136 138 145 155 154 148 164 189 218 231 238 248 256 255 255 259 266 268 272 276 278 279 281 279 274 277 290 296 299 296 282 284 284 279 274 290 293 293 292 285 284 288
136 139 140 146 153 155 158 184 218 233 240 247 256 261 263 265 270 268 273 275 277 281 283 285 285 277 277 287 293 297 297 297 291 288 283 280 290 292 293 294 290 292 297
146 144 145 150 166 176 176 202 232 239 245 254 261 266 269 268 267 267 275 281 279 280 285 286 289 289 276 280 293 297 298 298 294 285 289 293 295 297 296 291 292 294 292
154 149 150 165 192 206 208 219 237 241 246 258 266 269 272 275 272 268 269 273 276 279 283 286 288 290 287 278 275 275 284 290 291 288 288 293 294 293 289 289 290 280 271
160 159 170 189 211 222 236 242 243 244 254 262 268 272 271 272 277 273 267 272 263 267 280 281 280 289 293 289 295 298 292 288 284 292 286 282 282 280 276 275 271 266 271
163 170 186 205 224 234 249 254 251 246 253 266 271 271 273 274 275 281 287 280 279 286 288 288 289 289 290 297 300 301 301 302 301 301 291 288 286 284 283 282 277 269 266
Height
1513 1514 1514 1515 1517 1518 1520 1523 1525 1528 1531 1534 1536 1538 1540 1542 1543 1544 1544 1545 1545 1544 1544 1543 1543 1542 1541 1540 1539 1538 1536 1535 1533 1530 1527 1524 1523 1521 1521 1520 1520 1519 1518
1511 1512 1514 1515 1516 1518 1520 1522 1524 1527 1529 1532 1535 1537 1539 1540 1541 1542 1542 1542 1542 1541 1541 1540 1539 1538 1537 1536 1535 1534 1532 1530 1530 1527 1523 1518 1515 1514 1514 1514 1513 1513 1512
1508 1510 1512 1514 1515 1517 1519 1521 1523 1526 1528 1531 1533 1535 1537 1538 1539 1539 1539 1539 1538 1538 1537 1536 1536 1535 1533 1532 1531 1530 1528 1526 1525 1524 1523 1518 1512 1509 1506 1506 1506 1506 1505
1506 1508 1511 1513 1515 1517 1519 1521 1523 1525 1527 1529 1531 1533 1534 1535 1536 1536 1536 1536 1535 1535 1534 1533 1532 1531 1530 1528 1527 1525 1524 1522 1520 1519 1518 1516 1513 1508 1500 1499 1499 1499 1498
1504 1506 1509 1512 1514 1516 1518 1520 1522 1524 1526 1528 1530 1531 1532 1533 1534 1534 1534 1533 1533 1532 1531 1530 1529 1527 1526 1524 1523 1521 1520 1518 1516 1514 1512 1510 1508 1505 1500 1492 1490 1490 1489
1502 1505 1508 1511 1513 1515 1517 1520 1521 1523 1525 1527 1528 1529 1530 1531 1531 1531 1531 1530 1530 1529 1528 1526 1525 1524 1522 1520 1519 1517 1515 1513 1511 1509 1507 1504 1502 1498 1495 1488 1483 1480 1479
1499 1502 1505 1508 1511 1514 1516 1518 1520 1522 1524 1526 1527 1528 1528 1529 1529 1528 1528 1527 1526 1525 1524 1523 1521 1520 1518 1516 1514 1512 1510 1507 1505 1503 1500 1498 1495 1493 1489 1484 1477 1472 1469
1496 1499 1502 1506 1509 1512 1515 1517 1519 1521 1523 1524 1525 1526 1526 1526 1526 1526 1525 1524 1523 1522 1520 1519 1517 1515 1513 1511 1509 1506 1504 1501 1499 1496 1494 1491 1488 1486 1483 1479 1473 1464 1459
1493 1496 1500 1504 1507 1510 1513 1515 1517 1519 1521 1522 1523 1524 1524 1524 1524 1523 1522 1521 1520 1518 1516 1515 1513 1511 1508 1506 1503 1500 1497 1495 1492 1489 1486 1483 1480 1478 1475 1472 1469 1463 1453
1490 1494 1497 1501 1504 1508 1511 1513 1516 1517 1519 1520 1521 1521 1521 1521 1520 1520 1519 1517 1516 1514 1512 1510 1508 1505 1503 1500 1497 1494 1491 1487 1485 1481 1478 1475 1472 1469 1466 1464 1461 1457 1450
1486 1490 1494 1498 1502 1505 1508 1510 1513 1515 1516 1517 1518 1518 1518 1518 1517 1516 1515 1513 1511 1509 1507 1505 1502 1500 1497 1493 1490 1487 1484 1480 1477 1474 1470 1467 1464 1461 1458 1455 1452 1448 1444
1483 1487 1491 1495 1498 1501 1504 1507 1510 1512 1513 1514 1515 1515 1515 1514 1513 1512 1511 1509 1507 1505 1502 1499 1497 1494 1490 1487 1483 1480 1476 1473 1469 1466 1462 1459 1456 1452 1449 1446 1442 1439 1435
1481 1485 1488 1491 1494 1498 1501 1504 1506 1508 1510 1511 1512 1512 1511 1510 1509 1508 1506 1504 1502 1499 1497 1494 1491 1487 1484 1480 1476 1473 1469 1465 1462 1458 1455 1451 1448 1443 1440 1437 1433 1429 1426
1477 1480 1484 1487 1491 1494 1497 1500 1502 1505 1506 1507 1508 1508 1507 1506 1505 1503 1501 1499 1497 1494 1491 1488 1485 1481 1477 1473 1469 1465 1461 1457 1454 1451 1447 1443 1439 1435 1432 1428 1424 1421 1418
1473 1476 1479 1482 1486 1490 1493 1496 1499 1501 1502 1503 1503 1503 1503 1502 1500 1498 1496 1494 1491 1488 1485 1482 1478 1475 1471 1466 1462 1457 1453 1449 1445 1442 1439 1435 1431 1427 1424 1421 1417 1414 1410
1468 1471 1475 1478 1482 1485 1489 1492 1494 1497 1498 1499 1499 1499 1498 1496 1495 1493 1491 1488 1485 1482 1479 1475 1471 1468 1464 1460 1455 1451 1446 1442 1437 1433 1430 1426 1423 1419 1416 1413 1410 1408 1404
1464 1467 1470 1474 1477 1481 1485 1488 1490 1492 1494 1494 1494 1494 1492 1491 1489 1487 1485 1482 1479 1475 1472 1468 1464 1460 1457 1452 1448 1443 1439 1434 1430 1425 1421 1417 1414 1411 1407 1403 1400 1398 1395
1461 1464 1468 1471 1475 1478 1482 1485 1487 1488 1489 1490 1489 1488 1487 1485 1483 1481 1478 1475 1472 1468 1464 1461 1457 1453 1449 1445 1440 1435 1430 1425 1421 1418 1414 1409 1405 1402 1399 1394 1390 1387 1385
1459 1462 1465 1469 1472 1475 1478 1481 1483 1484 1484 1485 1484 1483 1481 1479 1477 1474 1471 1468 1464 1460 1457 1453 1449 1444 1440 1437 1432 1427 1421 1416 1412 1409 1405 1401 1397 1394 1391 1387 1382 1378 1375
1458 1461 1463 1467 1470 1472 1475 1477 1478 1479 1480 1479 1479 1477 1475 1473 1470 1467 1464 1461 1457 1452 1448 1444 1441 1437 1432 1428 1423 1419 1413 1407 1403 1399 1396 1393 1389 1386 1383 1379 1375 1370 1366
1457 1459 1462 1464 1467 1470 1472 1473 1474 1475 1475 1474 1473 1471 1469 1467 1464 1460 1457 1453 1449 1444 1440 1436 1432 1428 1423 1418 1415 1410 1405 1400 1395 1390 1386 1383 1381 1377 1374 1371 1367 1363 1359
1455 1458 1460 1462 1465 1467 1468 1469 1470 1470 1470 1468 1467 1465 1463 1460 1457 1453 1449 1445 1441 1436 1431 1426 1421 1418 1414 1410 1405 1401 1398 1393 1388 1382 1378 1374 1371 1368 1365 1362 1358 1355 1352
1454 1456 1458 1461 1462 1464 1465 1465 1465 1465 1463 1462 1460 1458 1455 1452 1449 1445 1441 1437 1433 1428 1422 1417 1411 1406 1403 1400 1397 1392 1388 1384 1380 1375 1370 1367 1363 1360 1356 1352 1350 1347 1343
1453 1455 1457 1458 1459 1460 1461 1461 1460 1459 1457 1455 1453 1451 1448 1444 1441 1437 1433 1428 1424 1419 1414 1409 1403 1397 1393 1390 1386 1382 1378 1374 1370 1366 1361 1357 1354 1350 1347 1344 1341 1338 1335
1451 1453 1454 1455 1456 1456 1456 1456 1455 1453 1451 1449 1446 1443 1440 1436 1432 1428 1425 1420 1416 1412 1406 1400 1396 1390 1384 1381 1379 1375 1370 1366 1362 1357 1352 1348 1344 1341 1337 1335 1332 1330 1327
1448 1450 1451 1452 1452 1452 1451 1451 1449 1447 1444 1441 1438 1435 1431 1427 1423 1418 1414 1410 1407 1402 1398 1393 1389 1382 1378 1373 1370 1366 1362 1358 1354 1350 1344 1340 1337 1333 1330 1327 1324 1322 1320